Miscellaneous Local Product
Issued by NWS North Platte, NE

Home | Current Version | Previous Version | Graphics & Text | Print | Product List | Glossary On
Versions: 1 2 3 4 5 6 7 8 9 10 11 12 13 14 15 16 17 18 19 20 21 22 23 24 25 26 27 28 29 30 31 32 33 34 35 36 37 38 39 40 41 42 43 44 45 46 47 48 49 50
936
AXUS43 KLBF 200410
MISLBF


WESTERN AND NORTH CENTRAL NEBRASKA HOURLY WEATHER ROUNDUP
NATIONAL WEATHER SERVICE NORTH PLATTE NE
1100 PM CDT SAT AUG 19 2017

NOTE: "FAIR" INDICATES FEW OR NO CLOUDS BELOW 12,000 FEET WITH NO
SIGNIFICANT WEATHER AND/OR OBSTRUCTIONS TO VISIBILITY.

NOTE: STATIONS NOT REPORTING VARIABLES SUCH AS SKY/WEATHER OR
PRESSURE ARE PROVIDED BY RAWS AND APRS NETWORKS AND ARE NOT UNDER
NATIONAL WEATHER SERVICE QUALITY CONTROL.

...OBSERVATIONS IN AND NEAR THE EASTERN PANHANDLE OF NEBRASKA...

CITY           SKY/WX    TMP DP  RH WIND       PRES   REMARKS
PINE RIDGE     CLEAR     77  45  32 N13       29.90R
GORDON         FAIR      61  55  78 CALM      29.91R
CHADRON        CLEAR     74  44  34 NE10      29.90R
ALLIANCE       CLEAR     65  50  58 E5        29.93R
SIDNEY         CLEAR     62  53  72 CALM      29.98R
CRESCENT LAKE    N/A     74  47  38 E6          N/A
$$

...OBSERVATIONS IN NORTHERN NEBRASKA AND FAR SOUTHERN SOUTH DAKOTA...

CITY           SKY/WX    TMP DP  RH WIND       PRES   REMARKS
WINNER         FAIR      75  70  84 SE9       29.83R
VALENTINE      CLEAR     74  61  63 S10       29.86R
THEDFORD       CLEAR     72  60  66 E5        29.91R
AINSWORTH      CLOUDY    71  62  72 S10       29.87S
O`NEILL        CLOUDY    75  56  52 S13       29.82S
ORD            TSTM      71  62  73 SE10      29.87F
BROKEN BOW     CLOUDY    72  59  63 SE7       29.89F
VALENTINE NWR    N/A     71  64  78 S9          N/A
HALSEY           N/A     74  57  55 SE9         N/A
BUTTE            N/A     71  68  90 E3          N/A
CHAMBERS         N/A     71  56  58 SW3         N/A
EWING            N/A     78  54  43 S10G21      N/A
$$

...OBSERVATIONS IN SOUTHWEST NEBRASKA AND FAR NORTHEAST COLORADO...

CITY           SKY/WX    TMP DP  RH WIND       PRES   REMARKS
HOLYOKE        FAIR      72  63  73 CALM      29.92S
IMPERIAL       CLEAR     75  60  59 CALM      29.89R
OGALLALA       CLEAR     67  60  76 CALM      29.89R
NORTH PLATTE   CLEAR     70  66  87 E6        29.86R
MCCOOK         CLEAR     78  59  51 SW12      29.85R
LEXINGTON      CLEAR     78  62  58 SE10      29.85S
STAPLETON        N/A     73  63  70 SE3         N/A
GOTHENBURG       N/A     80  61  51 SE3         N/A
CALLAWAY         N/A     76  65  68 S12         N/A
$$

...OBSERVATIONS IN CENTRAL LINCOLN COUNTY AREA...

CITY           SKY/WX    TMP DP  RH WIND       PRES   REMARKS
N.P. AIRPORT   CLEAR     70  66  87 E6        29.86R
N.P. DOWNTOWN    N/A     77  67  71 CALM        N/A
N.P. SOUTHEAST   N/A     75  67  76 CALM        N/A
N.P. HILLCREST   N/A     74  65  74 E7          N/A
$$

...SOME OBSERVATIONS FROM AROUND THE REGION...

CITY           SKY/WX    TMP DP  RH WIND       PRES   REMARKS
DENVER         MOCLDY    75  36  24 S12       30.06R
LIMON          CLOUDY    68  52  56 SE3       30.10R
ASPEN          CLOUDY    59  37  44 SW10      30.30R
LARAMIE        CLOUDY    56  26  31 W6        30.20S
CASPER         CLEAR     63  34  33 NW9       30.01R
CHEYENNE       CLEAR     64  29  26 W8        30.12R
SCOTTSBLUFF    CLEAR     69  49  48 SE3       29.93S
GRAND ISLAND   CLOUDY    83  72  69 SE20G38   29.85F THUNDER
OMAHA          CLOUDY    79  61  53 SE18      29.86F
SIOUX FALLS    CLOUDY    74  66  76 S14       29.87R
PIERRE         CLEAR     73  66  78 E8        29.79R
RAPID CITY     CLOUDY    67  43  41 NW12      29.93R
BISMARCK       PTCLDY    73  56  54 NW13      29.86R
KANSAS CITY    CLEAR     74  70  87 SE8       29.94R
HILL CITY      CLOUDY    82  62  50 SW9       29.87S
WICHITA        CLOUDY    79  71  76 S7        29.91S
DODGE CITY     CLEAR     80  62  54 S9        29.95S
OKLAHOMA CITY  PTCLDY    76  72  87 S8        29.97R
DALLAS         MOCLDY    88  71  57 SE9       29.95R HX  94
AMARILLO       CLEAR     77  63  61 S15       30.07R
$$




USA.gov is the U.S. government's official web portal to all federal, state and local government web resources and services.